owner,sensor,date,latitude,longitude,vertical_datum,wind_speed,wind_to_direction,wind_speed_of_gust,qcFlag 
COMPS,ioos:station:USF.COMPS:FHP:1,2019-12-01T00:54:00,28.1530,-82.8010,10.0,2.27,180.97,2.74,'11111222,11111222,11111222' 
COMPS,ioos:station:USF.COMPS:FHP:1,2019-12-01T01:54:00,28.1530,-82.8010,10.0,2.17,184.11,2.54,'11111222,11111222,11111222' 
COMPS,ioos:station:USF.COMPS:FHP:1,2019-12-01T02:54:00,28.1530,-82.8010,10.0,2.94,178.08,3.42,'11111222,11111222,11111222' 
COMPS,ioos:station:USF.COMPS:FHP:1,2019-12-01T03:54:00,28.1530,-82.8010,10.0,2.86,180.16,3.13,'11111222,11111222,11111222' 
COMPS,ioos:station:USF.COMPS:FHP:1,2019-12-01T04:54:00,28.1530,-82.8010,10.0,3.21,179.37,3.62,'11111222,11111222,11111222' 
COMPS,ioos:station:USF.COMPS:FHP:1,2019-12-01T05:54:00,28.1530,-82.8010,10.0,2.59,175.72,2.93,'11111222,11111222,11111222' 
COMPS,ioos:station:USF.COMPS:FHP:1,2019-12-01T06:54:00,28.1530,-82.8010,10.0,2.34,172.51,2.64,'11111222,11111222,11111222' 
COMPS,ioos:station:USF.COMPS:FHP:1,2019-12-01T07:54:00,28.1530,-82.8010,10.0,3.4,172.97,3.82,'11111222,11111222,11111222' 
COMPS,ioos:station:USF.COMPS:FHP:1,2019-12-01T08:54:00,28.1530,-82.8010,10.0,3.31,159.9,3.72,'11111222,11111222,11111222' 
COMPS,ioos:station:USF.COMPS:FHP:1,2019-12-01T09:54:00,28.1530,-82.8010,10.0,3.46,147.05,3.82,'11111222,11111222,11111222' 
COMPS,ioos:station:USF.COMPS:FHP:1,2019-12-01T10:54:00,28.1530,-82.8010,10.0,3.1,152.99,3.82,'11111222,11111222,11111222' 
COMPS,ioos:station:USF.COMPS:FHP:1,2019-12-01T11:54:00,28.1530,-82.8010,10.0,2.71,151.65,3.33,'11111222,11111222,11111222' 
COMPS,ioos:station:USF.COMPS:FHP:1,2019-12-01T12:54:00,28.1530,-82.8010,10.0,5.96,167.28,6.95,'11111222,11111222,11111222' 
COMPS,ioos:station:USF.COMPS:FHP:1,2019-12-01T13:54:00,28.1530,-82.8010,10.0,4.3,173.68,5.09,'11111222,11111222,11111222' 
COMPS,ioos:station:USF.COMPS:FHP:1,2019-12-01T14:54:00,28.1530,-82.8010,10.0,4.14,196.05,4.5,'11111222,11111222,11111222' 
COMPS,ioos:station:USF.COMPS:FHP:1,2019-12-01T15:54:00,28.1530,-82.8010,10.0,6.56,204.18,6.95,'11111222,11111222,11111222' 
COMPS,ioos:station:USF.COMPS:FHP:1,2019-12-01T16:54:00,28.1530,-82.8010,10.0,6.57,196.93,7.05,'11111222,11111222,11111222' 
COMPS,ioos:station:USF.COMPS:FHP:1,2019-12-01T17:54:00,28.1530,-82.8010,10.0,5.9,207.35,6.56,'11111222,11111222,11111222' 
COMPS,ioos:station:USF.COMPS:FHP:1,2019-12-01T18:54:00,28.1530,-82.8010,10.0,6.48,206.77,7.15,'11111222,11111222,11111222' 
COMPS,ioos:station:USF.COMPS:FHP:1,2019-12-01T19:54:00,28.1530,-82.8010,10.0,6.47,199.37,7.05,'11111222,11111222,11111222' 
COMPS,ioos:station:USF.COMPS:FHP:1,2019-12-01T20:54:00,28.1530,-82.8010,10.0,6.53,205.9,6.95,'11111222,11111222,11111222' 
COMPS,ioos:station:USF.COMPS:FHP:1,2019-12-01T21:54:00,28.1530,-82.8010,10.0,5.34,199.33,6.76,'11111222,11111222,11111222' 
COMPS,ioos:station:USF.COMPS:FHP:1,2019-12-01T22:54:00,28.1530,-82.8010,10.0,6.25,249.24,6.85,'11111222,11111222,11111222' 
COMPS,ioos:station:USF.COMPS:FHP:1,2019-12-01T23:54:00,28.1530,-82.8010,10.0,5.58,218.63,6.17,'11111222,11111222,11111222' 
COMPS,ioos:station:USF.COMPS:FHP:1,2019-12-02T00:54:00,28.1530,-82.8010,10.0,4.89,222.35,5.48,'11111222,11111222,11111222' 
COMPS,ioos:station:USF.COMPS:FHP:1,2019-12-02T01:54:00,28.1530,-82.8010,10.0,5.94,220.42,6.66,'11111222,11111222,11111222' 
COMPS,ioos:station:USF.COMPS:FHP:1,2019-12-02T02:54:00,28.1530,-82.8010,10.0,4.92,235.67,5.58,'11111222,11111222,11111222' 
COMPS,ioos:station:USF.COMPS:FHP:1,2019-12-02T03:54:00,28.1530,-82.8010,10.0,5.85,238.05,6.85,'11111222,11111222,11111222' 
COMPS,ioos:station:USF.COMPS:FHP:1,2019-12-02T04:54:00,28.1530,-82.8010,10.0,6.48,234.05,6.95,'11111222,11111222,11111222' 
COMPS,ioos:station:USF.COMPS:FHP:1,2019-12-02T05:54:00,28.1530,-82.8010,10.0,5.51,249.75,6.07,'11111222,11111222,11111222' 
COMPS,ioos:station:USF.COMPS:FHP:1,2019-12-02T06:54:00,28.1530,-82.8010,10.0,6.44,272.88,7.93,'11111222,11111222,11111222' 
COMPS,ioos:station:USF.COMPS:FHP:1,2019-12-02T07:54:00,28.1530,-82.8010,10.0,6.95,294.04,8.13,'11111222,11111222,11111222' 
COMPS,ioos:station:USF.COMPS:FHP:1,2019-12-02T08:54:00,28.1530,-82.8010,10.0,6.68,286.44,7.35,'11111222,11111222,11111222' 
COMPS,ioos:station:USF.COMPS:FHP:1,2019-12-02T09:54:00,28.1530,-82.8010,10.0,6.64,293.55,7.25,'11111222,11111222,11111222' 
COMPS,ioos:station:USF.COMPS:FHP:1,2019-12-02T10:54:00,28.1530,-82.8010,10.0,7.91,314.35,9.5,'11111222,11111222,11111222' 
COMPS,ioos:station:USF.COMPS:FHP:1,2019-12-02T11:54:00,28.1530,-82.8010,10.0,7.92,315.98,9.11,'11111222,11111222,11111222' 
COMPS,ioos:station:USF.COMPS:FHP:1,2019-12-02T12:54:00,28.1530,-82.8010,10.0,8.05,326.22,9.01,'11111222,11111222,11111222' 
COMPS,ioos:station:USF.COMPS:FHP:1,2019-12-02T13:54:00,28.1530,-82.8010,10.0,7.65,315.88,9.21,'11111222,11111222,11111222' 
COMPS,ioos:station:USF.COMPS:FHP:1,2019-12-02T14:54:00,28.1530,-82.8010,10.0,8.43,327.38,10.38,'11111222,11111222,11111222' 
COMPS,ioos:station:USF.COMPS:FHP:1,2019-12-02T15:54:00,28.1530,-82.8010,10.0,8.45,319.29,9.4,'11111222,11111222,11111222' 
COMPS,ioos:station:USF.COMPS:FHP:1,2019-12-02T16:54:00,28.1530,-82.8010,10.0,7.27,330.59,8.42,'11111222,11111222,11111222' 
COMPS,ioos:station:USF.COMPS:FHP:1,2019-12-02T17:54:00,28.1530,-82.8010,10.0,7.29,318.69,8.42,'11111222,11111222,11111222' 
COMPS,ioos:station:USF.COMPS:FHP:1,2019-12-02T18:54:00,28.1530,-82.8010,10.0,6.89,300.78,8.03,'11111222,11111222,11111222' 
COMPS,ioos:station:USF.COMPS:FHP:1,2019-12-02T19:54:00,28.1530,-82.8010,10.0,6.84,308.59,7.93,'11111222,11111222,11111222' 
COMPS,ioos:station:USF.COMPS:FHP:1,2019-12-02T20:54:00,28.1530,-82.8010,10.0,7.17,295.83,9.01,'11111222,11111222,11111222' 
COMPS,ioos:station:USF.COMPS:FHP:1,2019-12-02T21:54:00,28.1530,-82.8010,10.0,6.83,304.29,7.83,'11111222,11111222,11111222' 
COMPS,ioos:station:USF.COMPS:FHP:1,2019-12-02T22:54:00,28.1530,-82.8010,10.0,6.81,305.41,7.44,'11111222,11111222,11111222' 
COMPS,ioos:station:USF.COMPS:FHP:1,2019-12-02T23:54:00,28.1530,-82.8010,10.0,6.65,312.18,7.05,'11111222,11111222,11111222' 
COMPS,ioos:station:USF.COMPS:FHP:1,2019-12-03T00:54:00,28.1530,-82.8010,10.0,6.71,330.65,7.44,'11111222,11111222,11111222' 
COMPS,ioos:station:USF.COMPS:FHP:1,2019-12-03T01:54:00,28.1530,-82.8010,10.0,6.72,340.89,7.15,'11111222,11111222,11111222' 
COMPS,ioos:station:USF.COMPS:FHP:1,2019-12-03T02:54:00,28.1530,-82.8010,10.0,6.71,353.04,7.25,'11111222,11111222,11111222' 
COMPS,ioos:station:USF.COMPS:FHP:1,2019-12-03T03:54:00,28.1530,-82.8010,10.0,6.54,0.59,7.25,'11111222,11111222,11111222' 
COMPS,ioos:station:USF.COMPS:FHP:1,2019-12-03T04:54:00,28.1530,-82.8010,10.0,3.45,50.88,4.5,'11111222,11111222,11111222' 
COMPS,ioos:station:USF.COMPS:FHP:1,2019-12-03T05:54:00,28.1530,-82.8010,10.0,3.76,58.36,4.41,'11111222,11111222,11111222' 
COMPS,ioos:station:USF.COMPS:FHP:1,2019-12-03T06:54:00,28.1530,-82.8010,10.0,3.47,68.53,4.11,'11111222,11111222,11111222' 
COMPS,ioos:station:USF.COMPS:FHP:1,2019-12-03T07:54:00,28.1530,-82.8010,10.0,3.52,58.68,4.31,'11111222,11111222,11111222' 
COMPS,ioos:station:USF.COMPS:FHP:1,2019-12-03T08:54:00,28.1530,-82.8010,10.0,3.64,64.91,4.41,'11111222,11111222,11111222' 
COMPS,ioos:station:USF.COMPS:FHP:1,2019-12-03T09:54:00,28.1530,-82.8010,10.0,3.9,62.89,4.6,'11111222,11111222,11111222' 
COMPS,ioos:station:USF.COMPS:FHP:1,2019-12-03T10:54:00,28.1530,-82.8010,10.0,4.94,39.52,6.46,'11111222,11111222,11111222' 
COMPS,ioos:station:USF.COMPS:FHP:1,2019-12-03T11:54:00,28.1530,-82.8010,10.0,4.46,53.13,5.39,'11111222,11111222,11111222' 
COMPS,ioos:station:USF.COMPS:FHP:1,2019-12-03T12:54:00,28.1530,-82.8010,10.0,5.01,59.09,5.78,'11111222,11111222,11111222' 
COMPS,ioos:station:USF.COMPS:FHP:1,2019-12-03T13:54:00,28.1530,-82.8010,10.0,5.36,52.84,6.66,'11111222,11111222,11111222' 
COMPS,ioos:station:USF.COMPS:FHP:1,2019-12-03T14:54:00,28.1530,-82.8010,10.0,3.26,52.23,4.31,'11111222,11111222,11111222' 
COMPS,ioos:station:USF.COMPS:FHP:1,2019-12-03T15:54:00,28.1530,-82.8010,10.0,2.7,29.54,4.6,'11111222,11111222,11111222' 
COMPS,ioos:station:USF.COMPS:FHP:1,2019-12-03T16:54:00,28.1530,-82.8010,10.0,3.35,17.43,4.8,'11111222,11111222,11111222' 
COMPS,ioos:station:USF.COMPS:FHP:1,2019-12-03T17:54:00,28.1530,-82.8010,10.0,3.78,21.67,5.48,'11111222,11111222,11111222' 
COMPS,ioos:station:USF.COMPS:FHP:1,2019-12-03T18:54:00,28.1530,-82.8010,10.0,3.23,29.4,4.7,'11111222,11111222,11111222' 
COMPS,ioos:station:USF.COMPS:FHP:1,2019-12-03T19:54:00,28.1530,-82.8010,10.0,3.51,38.45,5.19,'11111222,11111222,11111222' 
COMPS,ioos:station:USF.COMPS:FHP:1,2019-12-03T20:54:00,28.1530,-82.8010,10.0,2.44,31.36,3.62,'11111222,11111222,11111222' 
COMPS,ioos:station:USF.COMPS:FHP:1,2019-12-03T21:54:00,28.1530,-82.8010,10.0,2.47,94.08,3.33,'11111222,11111222,11111222' 
COMPS,ioos:station:USF.COMPS:FHP:1,2019-12-03T22:54:00,28.1530,-82.8010,10.0,1.3,104.5,1.76,'11111222,11111222,11111222' 
COMPS,ioos:station:USF.COMPS:FHP:1,2019-12-03T23:54:00,28.1530,-82.8010,10.0,1.89,123.66,2.25,'11111222,11111222,11111222' 
COMPS,ioos:station:USF.COMPS:FHP:1,2019-12-04T00:54:00,28.1530,-82.8010,10.0,1.45,136.32,1.86,'11111222,11111222,11111222' 
COMPS,ioos:station:USF.COMPS:FHP:1,2019-12-04T01:54:00,28.1530,-82.8010,10.0,2.12,160.39,2.84,'11111222,11111222,11111222' 
COMPS,ioos:station:USF.COMPS:FHP:1,2019-12-04T02:54:00,28.1530,-82.8010,10.0,1.08,161.83,1.56,'11111222,11111222,11111222' 
COMPS,ioos:station:USF.COMPS:FHP:1,2019-12-04T03:54:00,28.1530,-82.8010,10.0,6.1,264.34,7.35,'11111222,11111222,11111222' 
COMPS,ioos:station:USF.COMPS:FHP:1,2019-12-04T04:54:00,28.1530,-82.8010,10.0,5.34,264.72,7.05,'11111222,11111222,11111222' 
COMPS,ioos:station:USF.COMPS:FHP:1,2019-12-04T05:54:00,28.1530,-82.8010,10.0,5.93,278.0,7.05,'11111222,11111222,11111222' 
COMPS,ioos:station:USF.COMPS:FHP:1,2019-12-04T06:54:00,28.1530,-82.8010,10.0,5.64,277.33,7.05,'11111222,11111222,11111222' 
COMPS,ioos:station:USF.COMPS:FHP:1,2019-12-04T07:54:00,28.1530,-82.8010,10.0,5.97,273.84,7.15,'11111222,11111222,11111222' 
COMPS,ioos:station:USF.COMPS:FHP:1,2019-12-04T08:54:00,28.1530,-82.8010,10.0,6.24,286.29,7.15,'11111222,11111222,11111222' 
COMPS,ioos:station:USF.COMPS:FHP:1,2019-12-04T09:54:00,28.1530,-82.8010,10.0,6.73,318.09,7.25,'11111222,11111222,11111222' 
COMPS,ioos:station:USF.COMPS:FHP:1,2019-12-04T10:54:00,28.1530,-82.8010,10.0,6.73,327.84,7.44,'11111222,11111222,11111222' 
COMPS,ioos:station:USF.COMPS:FHP:1,2019-12-04T11:54:00,28.1530,-82.8010,10.0,6.8,340.96,7.44,'11111222,11111222,11111222' 
COMPS,ioos:station:USF.COMPS:FHP:1,2019-12-04T12:54:00,28.1530,-82.8010,10.0,6.54,342.88,7.25,'11111222,11111222,11111222' 
COMPS,ioos:station:USF.COMPS:FHP:1,2019-12-04T13:54:00,28.1530,-82.8010,10.0,6.61,344.3,7.35,'11111222,11111222,11111222' 
COMPS,ioos:station:USF.COMPS:FHP:1,2019-12-04T14:54:00,28.1530,-82.8010,10.0,5.71,19.01,7.05,'11111222,11111222,11111222' 
COMPS,ioos:station:USF.COMPS:FHP:1,2019-12-04T15:54:00,28.1530,-82.8010,10.0,4.65,21.72,6.07,'11111222,11111222,11111222' 
COMPS,ioos:station:USF.COMPS:FHP:1,2019-12-04T16:54:00,28.1530,-82.8010,10.0,5.25,8.96,6.27,'11111222,11111222,11111222' 
COMPS,ioos:station:USF.COMPS:FHP:1,2019-12-04T17:54:00,28.1530,-82.8010,10.0,5.13,351.73,6.17,'11111222,11111222,11111222' 
COMPS,ioos:station:USF.COMPS:FHP:1,2019-12-04T18:54:00,28.1530,-82.8010,10.0,3.54,343.98,5.39,'11111222,11111222,11111222' 
COMPS,ioos:station:USF.COMPS:FHP:1,2019-12-04T19:54:00,28.1530,-82.8010,10.0,4.15,340.13,5.19,'11111222,11111222,11111222' 
 
DISCLAIMER: The Gulf of Mexico Coastal and Ocean Observing (GCOOS) Data Portal aggregates data from the regional data providers for the convenience of all data users. Data published on this website should not be used for navigation or certain other uses as we cannot guarantee data accuracy or availability. The data and delivery services are provided 'as is' without warranty of any kind. Data Source: Gulf of Mexico Coastal Ocean Observing System Data Portal (http://data.gcoos.org/) 
